Change the Weather History Date:

Sunday, March 24, 2013

  Actual Average Record
Temperature  
Mean Temperature 27 °F -  
Max Temperature 33 °F 57 °F 69 °F (2012)
Min Temperature 21 °F 37 °F 19 °F (1998)
Degree Days  
Heating Degree Days 38    
Moisture  
Dew Point 7 °F    
Average Humidity 44    
Maximum Humidity 68    
Minimum Humidity 30    
Precipitation  
Precipitation 0.00 in - - ()
Sea Level Pressure  
Sea Level Pressure 30.12 in    
Wind  
Wind Speed 10 mph ()    
Max Wind Speed 15 mph    
Max Gust Speed -    
Visibility 6.2 miles    
Events      
Averages and records for this station are not official NWS values.
T = Trace of Precipitation, MM = Missing Value Source: Averaged Metar Reports

Daily Weather History Graph

Daily Weather History Graph

Search for Another Location

Airport or City:

Trip Planner

Search our weather history database for the weather conditions in past years. The results will help you decide how hot, cold, wet, or windy it might be!

Date:

Astronomy

Mar. 24, 2013 Rise Set
Actual Time 5:37 AM CET 6:01 PM CET
Civil Twilight 5:07 AM CET 6:32 PM CET
Nautical Twilight 4:30 AM CET 7:08 PM CET
Astronomical Twilight 3:53 AM CET 7:46 PM CET
Moon 3:01 PM CET (3/24) 3:49 AM CET (3/24)
Length of Visible Light 13h 24m
Length of Day
12h 23m
Waxing Gibbous, 90% of the Moon is Illuminated
Mar 24
Waxing Gibbous
Mar 27
Full
Apr 3
Last Quarter
Apr 10
New
Apr 18
First Quarter

Hourly Weather History & Observations

Time (CET) Temp. Windchill Dew Point Humidity Pressure Visibility Wind Dir Wind Speed Gust Speed Precip Events Conditions
12:00 AM 26.6 °F 14.7 °F 14.0 °F 59% 30.09 in 6.2 mi East 15.0 mph - N/A   Overcast
12:30 AM 26.6 °F 14.7 °F 15.8 °F 64% 30.09 in 6.2 mi East 15.0 mph - N/A   Overcast
1:00 AM 24.8 °F 12.4 °F 12.2 °F 59% 30.12 in 6.2 mi East 15.0 mph - N/A   Overcast
1:30 AM 23.0 °F 11.1 °F 14.0 °F 68% 30.12 in 6.2 mi East 12.7 mph - N/A   Overcast
2:00 AM 23.0 °F 11.7 °F 12.2 °F 63% 30.12 in 6.2 mi East 11.5 mph - N/A   Mostly Cloudy
2:30 AM 23.0 °F 11.7 °F 12.2 °F 63% 30.12 in 6.2 mi East 11.5 mph - N/A   Mostly Cloudy
3:00 AM 21.2 °F 10.1 °F 10.4 °F 63% 30.12 in 6.2 mi ESE 10.4 mph - N/A   Mostly Cloudy
3:30 AM 21.2 °F 9.5 °F 10.4 °F 63% 30.12 in 6.2 mi East 11.5 mph - N/A   Mostly Cloudy
4:00 AM 21.2 °F 10.1 °F 8.6 °F 58% 30.12 in 6.2 mi ESE 10.4 mph - N/A   Mostly Cloudy
4:30 AM 21.2 °F 9.5 °F 8.6 °F 58% 30.15 in 6.2 mi East 11.5 mph - N/A   Mostly Cloudy
5:00 AM 21.2 °F 11.7 °F 8.6 °F 58% 30.15 in 6.2 mi East 8.1 mph - N/A   Mostly Cloudy
5:30 AM 21.2 °F 10.1 °F 8.6 °F 58% 30.15 in 6.2 mi East 10.4 mph - N/A   Mostly Cloudy
6:00 AM 21.2 °F 10.1 °F 6.8 °F 54% 30.15 in 6.2 mi East 10.4 mph - N/A   Mostly Cloudy
6:30 AM 21.2 °F 10.1 °F 6.8 °F 54% 30.15 in 6.2 mi East 10.4 mph - N/A   Overcast
7:00 AM 21.2 °F 10.9 °F 5.0 °F 50% 30.15 in 6.2 mi ENE 9.2 mph - N/A   Mostly Cloudy
7:30 AM 21.2 °F 10.9 °F 5.0 °F 50% 30.18 in 6.2 mi East 9.2 mph - N/A   Mostly Cloudy
8:00 AM 23.0 °F 13.1 °F 6.8 °F 50% 30.18 in 6.2 mi East 9.2 mph - N/A   Mostly Cloudy
8:30 AM 23.0 °F 13.1 °F 5.0 °F 46% 30.18 in 6.2 mi East 9.2 mph - N/A   Mostly Cloudy
9:00 AM 24.8 °F 15.3 °F 6.8 °F 46% 30.18 in 6.2 mi East 9.2 mph - N/A   Mostly Cloudy
9:30 AM 24.8 °F 16.1 °F 5.0 °F 43% 30.18 in 6.2 mi East 8.1 mph - N/A   Scattered Clouds
10:00 AM 24.8 °F 16.1 °F 3.2 °F 40% 30.18 in 6.2 mi East 8.1 mph - N/A   Mostly Cloudy
10:30 AM 26.6 °F 17.5 °F 3.2 °F 37% 30.18 in 6.2 mi East 9.2 mph - N/A   Mostly Cloudy
11:00 AM 26.6 °F 16.2 °F 1.4 °F 34% 30.15 in - East 11.5 mph - N/A   Clear
11:30 AM 26.6 °F 16.2 °F 3.2 °F 37% 30.15 in - East 11.5 mph - N/A   Clear
12:00 PM 26.6 °F 17.5 °F 3.2 °F 37% 30.15 in - ENE 9.2 mph - N/A   Clear
12:30 PM 28.4 °F 20.4 °F 3.2 °F 34% 30.15 in - ENE 8.1 mph - N/A   Clear
1:00 PM 30.2 °F 21.9 °F 5.0 °F 34% 30.12 in - ENE 9.2 mph - N/A   Clear
1:30 PM 30.2 °F 22.6 °F 5.0 °F 34% 30.12 in - East 8.1 mph - N/A   Clear
2:00 PM 30.2 °F 22.6 °F 3.2 °F 32% 30.12 in - East 8.1 mph - N/A   Clear
2:30 PM 32.0 °F 24.8 °F 5.0 °F 32% 30.12 in - ENE 8.1 mph - N/A   Clear
3:00 PM 32.0 °F 24.8 °F 5.0 °F 32% 30.12 in - East 8.1 mph - N/A   Clear
3:30 PM 33.8 °F 27.0 °F 6.8 °F 32% 30.09 in - East 8.1 mph - N/A   Clear
4:00 PM 33.8 °F 25.8 °F 5.0 °F 30% 30.09 in - East 10.4 mph - N/A   Clear
4:30 PM 33.8 °F 25.8 °F 5.0 °F 30% 30.09 in - East 10.4 mph - N/A   Clear
5:00 PM 33.8 °F 26.4 °F 6.8 °F 32% 30.09 in - East 9.2 mph - N/A   Clear
5:30 PM 32.0 °F 23.0 °F 5.0 °F 32% 30.09 in - East 11.5 mph - N/A   Clear
6:00 PM 32.0 °F 23.6 °F 6.8 °F 35% 30.09 in - East 10.4 mph - N/A   Clear
6:30 PM 32.0 °F 24.2 °F 6.8 °F 35% 30.09 in - East 9.2 mph - N/A   Clear
7:00 PM 32.0 °F 24.2 °F 6.8 °F 35% 30.09 in - East 9.2 mph - N/A   Clear
7:30 PM 32.0 °F 23.6 °F 8.6 °F 38% 30.09 in - East 10.4 mph - N/A   Clear
8:00 PM 32.0 °F 22.5 °F 6.8 °F 35% 30.09 in 6.2 mi East 12.7 mph - N/A   Mostly Cloudy
8:30 PM 30.2 °F 20.8 °F 8.6 °F 40% 30.09 in 6.2 mi ENE 11.5 mph - N/A   Mostly Cloudy
9:00 PM 30.2 °F 20.2 °F 8.6 °F 40% 30.09 in 6.2 mi East 12.7 mph - N/A   Overcast
9:30 PM 30.2 °F 20.8 °F 8.6 °F 40% 30.09 in 6.2 mi East 11.5 mph - N/A   Overcast
10:00 PM 30.2 °F 21.9 °F 8.6 °F 40% 30.12 in 6.2 mi East 9.2 mph - N/A   Overcast
10:30 PM 30.2 °F 21.9 °F 6.8 °F 37% 30.09 in 6.2 mi ENE 9.2 mph - N/A   Mostly Cloudy
11:00 PM 30.2 °F 21.3 °F 8.6 °F 40% 30.09 in 6.2 mi ENE 10.4 mph - N/A   Mostly Cloudy
11:30 PM 30.2 °F 23.4 °F 8.6 °F 40% 30.09 in 6.2 mi ENE 6.9 mph - N/A   Mostly Cloudy